Tracking 19176 objects as of 25-May-2018
HD Live streaming from Space Station
objects crossing your sky now

COSMOS 2209

Track COSMOS 2209 now!
COSMOS 2209 is classified as:


NORAD ID: 22112
Int'l Code: 1992-059A
Perigee: 35,774.6 km
Apogee: 35,871.2 km
Inclination: 15.1 °
Period: 1,437.6 minutes
Semi major axis: 42193 km
RCS: 5.0119 m2 (large)
Launch date: September 10, 1992
Source: Commonwealth of Independent States (former USSR) (CIS)
Launch site: TYURATAM MISSILE AND SPACE COMPLEX (TTMTR)
aabbcc
Your satellite tracking list
Your tracking list is empty




NASA's NSSDC Master Catalog

Two Line Element Set (TLE):
1 22112U 92059A   18144.55143141 -.00000236 +00000-0 +00000-0 0  9997
2 22112 015.0643 007.6492 0011456 257.1238 091.2889 01.00167860094078
Source of the keplerian elements: AFSPC